2020,02,29,00,00,00,169.9,,,,,,,,,,,,,,
2020,02,29,00,01,00,182.4,,,,,,,,,,,,,,
2020,02,29,00,02,00,142.7,,,,,,,,,,,,,,
2020,02,29,00,03,00,122.6,,,,,,,,,,,,,,
2020,02,29,00,04,00,126.5,,,,,,,,,,,,,,
2020,02,29,00,05,00,129.2,,,,,,,,,,,,,,
2020,02,29,00,06,00,141.7,,,,,,,,,,,,,,
2020,02,29,00,07,00,132.6,,,,,,,,,,,,,,
2020,02,29,00,08,00,127.5,,,,,,,,,,,,,,
2020,02,29,00,09,00,123.4,,,,,,,,,,,,,,
2020,02,29,00,10,00,121.5,,,,,,,,,,,,,,
2020,02,29,00,11,00,118.1,,,,,,,,,,,,,,
2020,02,29,00,12,00,119.5,,,,,,,,,,,,,,
2020,02,29,00,13,00,120.4,,,,,,,,,,,,,,
2020,02,29,00,14,00,123.9,,,,,,,,,,,,,,
2020,02,29,00,15,00,132.8,,,,,,,,,,,,,,
2020,02,29,00,16,00,122.7,,,,,,,,,,,,,,
2020,02,29,00,17,00,125.7,,,,,,,,,,,,,,
2020,02,29,00,18,00,138.9,,,,,,,,,,,,,,
2020,02,29,00,19,00,132.4,,,,,,,,,,,,,,
2020,02,29,00,20,00,131.5,,,,,,,,,,,,,,
2020,02,29,00,21,00,132.2,,,,,,,,,,,,,,
2020,02,29,00,22,00,140.5,,,,,,,,,,,,,,
2020,02,29,00,23,00,143.9,,,,,,,,,,,,,,
2020,02,29,00,24,00,142.8,,,,,,,,,,,,,,
2020,02,29,00,25,00,132.7,,,,,,,,,,,,,,
2020,02,29,00,26,00,126.6,,,,,,,,,,,,,,
2020,02,29,00,27,00,131.7,,,,,,,,,,,,,,
2020,02,29,00,28,00,133.6,,,,,,,,,,,,,,
2020,02,29,00,29,00,127.7,,,,,,,,,,,,,,
2020,02,29,00,30,00,125.7,,,,,,,,,,,,,,
2020,02,29,00,31,00,123.8,,,,,,,,,,,,,,
2020,02,29,00,32,00,126.4,,,,,,,,,,,,,,
2020,02,29,00,33,00,134.0,,,,,,,,,,,,,,
2020,02,29,00,34,00,127.2,,,,,,,,,,,,,,
2020,02,29,00,35,00,124.0,,,,,,,,,,,,,,
2020,02,29,00,36,00,117.4,,,,,,,,,,,,,,
2020,02,29,00,37,00,116.6,,,,,,,,,,,,,,
2020,02,29,00,38,00,116.6,,,,,,,,,,,,,,
2020,02,29,00,39,00,117.7,,,,,,,,,,,,,,
2020,02,29,00,40,00,116.9,,,,,,,,,,,,,,
2020,02,29,00,41,00,122.9,,,,,,,,,,,,,,
2020,02,29,00,42,00,123.8,,,,,,,,,,,,,,
2020,02,29,00,43,00,126.4,,,,,,,,,,,,,,
2020,02,29,00,44,00,116.0,,,,,,,,,,,,,,
2020,02,29,00,45,00,112.1,,,,,,,,,,,,,,
2020,02,29,00,46,00,112.6,,,,,,,,,,,,,,
2020,02,29,00,47,00,110.4,,,,,,,,,,,,,,
2020,02,29,00,48,00,115.4,,,,,,,,,,,,,,
2020,02,29,00,49,00,115.9,,,,,,,,,,,,,,
2020,02,29,00,50,00,112.8,,,,,,,,,,,,,,
2020,02,29,00,51,00,120.1,,,,,,,,,,,,,,
2020,02,29,00,52,00,140.0,,,,,,,,,,,,,,
2020,02,29,00,53,00,138.8,,,,,,,,,,,,,,
2020,02,29,00,54,00,126.5,,,,,,,,,,,,,,
2020,02,29,00,55,00,125.5,,,,,,,,,,,,,,
2020,02,29,00,56,00,126.2,,,,,,,,,,,,,,
2020,02,29,00,57,00,128.7,,,,,,,,,,,,,,
2020,02,29,00,58,00,144.3,,,,,,,,,,,,,,
2020,02,29,00,59,00,174.1,,,,,,,,,,,,,,
2020,02,29,01,00,00,165.1,,,,,,,,,,,,,,
2020,02,29,01,01,00,130.4,,,,,,,,,,,,,,
2020,02,29,01,02,00,122.0,,,,,,,,,,,,,,
2020,02,29,01,03,00,121.8,,,,,,,,,,,,,,
2020,02,29,01,04,00,116.6,,,,,,,,,,,,,,
2020,02,29,01,05,00,118.3,,,,,,,,,,,,,,
2020,02,29,01,06,00,134.2,,,,,,,,,,,,,,
2020,02,29,01,07,00,160.2,,,,,,,,,,,,,,
2020,02,29,01,08,00,153.0,,,,,,,,,,,,,,
2020,02,29,01,09,00,142.8,,,,,,,,,,,,,,
2020,02,29,01,10,00,122.3,,,,,,,,,,,,,,
2020,02,29,01,11,00,114.9,,,,,,,,,,,,,,
2020,02,29,01,12,00,117.3,,,,,,,,,,,,,,
2020,02,29,01,13,00,121.3,,,,,,,,,,,,,,
2020,02,29,01,14,00,120.0,,,,,,,,,,,,,,
2020,02,29,01,15,00,109.9,,,,,,,,,,,,,,
2020,02,29,01,16,00,102.8,,,,,,,,,,,,,,
2020,02,29,01,17,00,101.5,,,,,,,,,,,,,,
2020,02,29,01,18,00,91.8,,,,,,,,,,,,,,
2020,02,29,01,19,00,100.2,,,,,,,,,,,,,,
2020,02,29,01,20,00,101.5,,,,,,,,,,,,,,
2020,02,29,01,21,00,100.7,,,,,,,,,,,,,,
2020,02,29,01,22,00,102.3,,,,,,,,,,,,,,
2020,02,29,01,23,00,110.6,,,,,,,,,,,,,,
2020,02,29,01,24,00,115.1,,,,,,,,,,,,,,
2020,02,29,01,25,00,114.0,,,,,,,,,,,,,,
2020,02,29,01,26,00,111.7,,,,,,,,,,,,,,
2020,02,29,01,27,00,111.9,,,,,,,,,,,,,,
2020,02,29,01,28,00,112.1,,,,,,,,,,,,,,
2020,02,29,01,29,00,112.9,,,,,,,,,,,,,,
2020,02,29,01,30,00,122.4,,,,,,,,,,,,,,
2020,02,29,01,31,00,121.6,,,,,,,,,,,,,,
2020,02,29,01,32,00,116.0,,,,,,,,,,,,,,
2020,02,29,01,33,00,119.0,,,,,,,,,,,,,,
2020,02,29,01,34,00,127.0,,,,,,,,,,,,,,
2020,02,29,01,35,00,131.9,,,,,,,,,,,,,,
2020,02,29,01,36,00,140.3,,,,,,,,,,,,,,
2020,02,29,01,37,00,138.4,,,,,,,,,,,,,,
2020,02,29,01,38,00,133.3,,,,,,,,,,,,,,
2020,02,29,01,39,00,136.5,,,,,,,,,,,,,,
2020,02,29,01,40,00,134.2,,,,,,,,,,,,,,
2020,02,29,01,41,00,145.3,,,,,,,,,,,,,,
2020,02,29,01,42,00,144.9,,,,,,,,,,,,,,
2020,02,29,01,43,00,146.0,,,,,,,,,,,,,,
2020,02,29,01,44,00,136.4,,,,,,,,,,,,,,
2020,02,29,01,45,00,137.1,,,,,,,,,,,,,,
2020,02,29,01,46,00,129.6,,,,,,,,,,,,,,
2020,02,29,01,47,00,131.1,,,,,,,,,,,,,,
2020,02,29,01,48,00,124.8,,,,,,,,,,,,,,
2020,02,29,01,49,00,123.1,,,,,,,,,,,,,,
2020,02,29,01,50,00,121.1,,,,,,,,,,,,,,
2020,02,29,01,51,00,117.7,,,,,,,,,,,,,,
2020,02,29,01,52,00,116.5,,,,,,,,,,,,,,
2020,02,29,01,53,00,122.2,,,,,,,,,,,,,,
2020,02,29,01,54,00,126.8,,,,,,,,,,,,,,
2020,02,29,01,55,00,136.1,,,,,,,,,,,,,,
2020,02,29,01,56,00,135.8,,,,,,,,,,,,,,
2020,02,29,01,57,00,129.5,,,,,,,,,,,,,,
2020,02,29,01,58,00,128.1,,,,,,,,,,,,,,
2020,02,29,01,59,00,136.8,,,,,,,,,,,,,,
2020,02,29,02,00,00,176.6,,,,,,,,,,,,,,
2020,02,29,02,01,00,204.2,,,,,,,,,,,,,,
2020,02,29,02,02,00,227.9,,,,,,,,,,,,,,
2020,02,29,02,03,00,194.0,,,,,,,,,,,,,,
2020,02,29,02,04,00,153.5,,,,,,,,,,,,,,
2020,02,29,02,05,00,148.3,,,,,,,,,,,,,,
2020,02,29,02,06,00,148.9,,,,,,,,,,,,,,
2020,02,29,02,07,00,163.1,,,,,,,,,,,,,,
2020,02,29,02,08,00,194.1,,,,,,,,,,,,,,
2020,02,29,02,09,00,207.5,,,,,,,,,,,,,,
2020,02,29,02,10,00,185.7,,,,,,,,,,,,,,
2020,02,29,02,11,00,192.1,,,,,,,,,,,,,,
2020,02,29,02,12,00,157.6,,,,,,,,,,,,,,
2020,02,29,02,13,00,131.9,,,,,,,,,,,,,,
2020,02,29,02,14,00,141.5,,,,,,,,,,,,,,
2020,02,29,02,15,00,179.3,,,,,,,,,,,,,,
2020,02,29,02,16,00,163.9,,,,,,,,,,,,,,
2020,02,29,02,17,00,143.0,,,,,,,,,,,,,,
2020,02,29,02,18,00,136.5,,,,,,,,,,,,,,
2020,02,29,02,19,00,140.3,,,,,,,,,,,,,,
2020,02,29,02,20,00,146.0,,,,,,,,,,,,,,
2020,02,29,02,21,00,168.4,,,,,,,,,,,,,,
2020,02,29,02,22,00,181.2,,,,,,,,,,,,,,
2020,02,29,02,23,00,166.7,,,,,,,,,,,,,,
2020,02,29,02,24,00,172.5,,,,,,,,,,,,,,
2020,02,29,02,25,00,150.7,,,,,,,,,,,,,,
2020,02,29,02,26,00,137.2,,,,,,,,,,,,,,
2020,02,29,02,27,00,140.4,,,,,,,,,,,,,,
2020,02,29,02,28,00,133.0,,,,,,,,,,,,,,
2020,02,29,02,29,00,125.3,,,,,,,,,,,,,,
2020,02,29,02,30,00,126.8,,,,,,,,,,,,,,
2020,02,29,02,31,00,109.9,,,,,,,,,,,,,,
2020,02,29,02,32,00,110.6,,,,,,,,,,,,,,
2020,02,29,02,33,00,118.5,,,,,,,,,,,,,,
2020,02,29,02,34,00,113.2,,,,,,,,,,,,,,
2020,02,29,02,35,00,116.8,,,,,,,,,,,,,,
2020,02,29,02,36,00,117.5,,,,,,,,,,,,,,
2020,02,29,02,37,00,123.7,,,,,,,,,,,,,,
2020,02,29,02,38,00,132.2,,,,,,,,,,,,,,
2020,02,29,02,39,00,132.7,,,,,,,,,,,,,,
2020,02,29,02,40,00,145.8,,,,,,,,,,,,,,
2020,02,29,02,41,00,149.1,,,,,,,,,,,,,,
2020,02,29,02,42,00,137.2,,,,,,,,,,,,,,
2020,02,29,02,43,00,129.1,,,,,,,,,,,,,,
2020,02,29,02,44,00,136.9,,,,,,,,,,,,,,
2020,02,29,02,45,00,143.8,,,,,,,,,,,,,,
2020,02,29,02,46,00,139.8,,,,,,,,,,,,,,
2020,02,29,02,47,00,140.0,,,,,,,,,,,,,,
2020,02,29,02,48,00,144.3,,,,,,,,,,,,,,
2020,02,29,02,49,00,146.6,,,,,,,,,,,,,,
2020,02,29,02,50,00,133.4,,,,,,,,,,,,,,
2020,02,29,02,51,00,127.9,,,,,,,,,,,,,,
2020,02,29,02,52,00,123.8,,,,,,,,,,,,,,
2020,02,29,02,53,00,125.3,,,,,,,,,,,,,,
2020,02,29,02,54,00,131.8,,,,,,,,,,,,,,
2020,02,29,02,55,00,142.2,,,,,,,,,,,,,,
2020,02,29,02,56,00,126.8,,,,,,,,,,,,,,
2020,02,29,02,57,00,139.3,,,,,,,,,,,,,,
2020,02,29,02,58,00,153.6,,,,,,,,,,,,,,
2020,02,29,02,59,00,158.8,,,,,,,,,,,,,,
2020,02,29,03,00,00,174.2,,,,,,,,,,,,,,
2020,02,29,03,01,00,181.9,,,,,,,,,,,,,,
2020,02,29,03,02,00,165.1,,,,,,,,,,,,,,
2020,02,29,03,03,00,174.6,,,,,,,,,,,,,,
2020,02,29,03,04,00,161.5,,,,,,,,,,,,,,
2020,02,29,03,05,00,152.3,,,,,,,,,,,,,,
2020,02,29,03,06,00,189.7,,,,,,,,,,,,,,
2020,02,29,03,07,00,177.3,,,,,,,,,,,,,,
2020,02,29,03,08,00,158.4,,,,,,,,,,,,,,
2020,02,29,03,09,00,152.0,,,,,,,,,,,,,,
2020,02,29,03,10,00,158.3,,,,,,,,,,,,,,
2020,02,29,03,11,00,195.8,,,,,,,,,,,,,,
2020,02,29,03,12,00,197.7,,,,,,,,,,,,,,
2020,02,29,03,13,00,200.1,,,,,,,,,,,,,,
2020,02,29,03,14,00,191.5,,,,,,,,,,,,,,
2020,02,29,03,15,00,223.1,,,,,,,,,,,,,,
2020,02,29,03,16,00,226.2,,,,,,,,,,,,,,
2020,02,29,03,17,00,196.3,,,,,,,,,,,,,,
2020,02,29,03,18,00,189.7,,,,,,,,,,,,,,
2020,02,29,03,19,00,186.9,,,,,,,,,,,,,,
2020,02,29,03,20,00,197.1,,,,,,,,,,,,,,
2020,02,29,03,21,00,216.7,,,,,,,,,,,,,,
2020,02,29,03,22,00,179.3,,,,,,,,,,,,,,
2020,02,29,03,23,00,188.4,,,,,,,,,,,,,,
2020,02,29,03,24,00,266.4,,,,,,,,,,,,,,
2020,02,29,03,25,00,316.4,,,,,,,,,,,,,,
2020,02,29,03,26,00,372.6,,,,,,,,,,,,,,
2020,02,29,03,27,00,287.7,,,,,,,,,,,,,,
2020,02,29,03,28,00,196.5,,,,,,,,,,,,,,
2020,02,29,03,29,00,181.1,,,,,,,,,,,,,,
2020,02,29,03,30,00,187.0,,,,,,,,,,,,,,
2020,02,29,03,31,00,198.5,,,,,,,,,,,,,,
2020,02,29,03,32,00,171.9,,,,,,,,,,,,,,
2020,02,29,03,33,00,150.3,,,,,,,,,,,,,,
2020,02,29,03,34,00,164.9,,,,,,,,,,,,,,
2020,02,29,03,35,00,197.1,,,,,,,,,,,,,,
2020,02,29,03,36,00,215.9,,,,,,,,,,,,,,
2020,02,29,03,37,00,221.3,,,,,,,,,,,,,,
2020,02,29,03,38,00,209.9,,,,,,,,,,,,,,
2020,02,29,03,39,00,218.4,,,,,,,,,,,,,,
2020,02,29,03,40,00,201.3,,,,,,,,,,,,,,
2020,02,29,03,41,00,201.6,,,,,,,,,,,,,,
2020,02,29,03,42,00,149.7,,,,,,,,,,,,,,
2020,02,29,03,43,00,138.1,,,,,,,,,,,,,,
2020,02,29,03,44,00,126.8,,,,,,,,,,,,,,
2020,02,29,03,45,00,126.8,,,,,,,,,,,,,,
2020,02,29,03,46,00,126.2,,,,,,,,,,,,,,
2020,02,29,03,47,00,130.0,,,,,,,,,,,,,,
2020,02,29,03,48,00,152.5,,,,,,,,,,,,,,
2020,02,29,03,49,00,213.2,,,,,,,,,,,,,,
2020,02,29,03,50,00,152.0,,,,,,,,,,,,,,
2020,02,29,03,51,00,148.7,,,,,,,,,,,,,,
2020,02,29,03,52,00,179.5,,,,,,,,,,,,,,
2020,02,29,03,53,00,181.1,,,,,,,,,,,,,,
2020,02,29,03,54,00,156.6,,,,,,,,,,,,,,
2020,02,29,03,55,00,137.3,,,,,,,,,,,,,,
2020,02,29,03,56,00,139.3,,,,,,,,,,,,,,
2020,02,29,03,57,00,144.2,,,,,,,,,,,,,,
2020,02,29,03,58,00,130.2,,,,,,,,,,,,,,
2020,02,29,03,59,00,125.8,,,,,,,,,,,,,,
2020,02,29,04,00,00,123.3,,,,,,,,,,,,,,
2020,02,29,04,01,00,117.9,,,,,,,,,,,,,,
2020,02,29,04,02,00,115.8,,,,,,,,,,,,,,
2020,02,29,04,03,00,119.6,,,,,,,,,,,,,,
2020,02,29,04,04,00,127.0,,,,,,,,,,,,,,
2020,02,29,04,05,00,123.6,,,,,,,,,,,,,,
2020,02,29,04,06,00,122.5,,,,,,,,,,,,,,
2020,02,29,04,07,00,133.5,,,,,,,,,,,,,,
2020,02,29,04,08,00,168.4,,,,,,,,,,,,,,
2020,02,29,04,09,00,177.6,,,,,,,,,,,,,,
2020,02,29,04,10,00,138.6,,,,,,,,,,,,,,
2020,02,29,04,11,00,143.7,,,,,,,,,,,,,,
2020,02,29,04,12,00,142.8,,,,,,,,,,,,,,
2020,02,29,04,13,00,122.2,,,,,,,,,,,,,,
2020,02,29,04,14,00,134.7,,,,,,,,,,,,,,
2020,02,29,04,15,00,175.3,,,,,,,,,,,,,,
2020,02,29,04,16,00,280.1,,,,,,,,,,,,,,
2020,02,29,04,17,00,303.7,,,,,,,,,,,,,,
2020,02,29,04,18,00,351.3,,,,,,,,,,,,,,
2020,02,29,04,19,00,304.3,,,,,,,,,,,,,,
2020,02,29,04,20,00,232.9,,,,,,,,,,,,,,
2020,02,29,04,21,00,223.8,,,,,,,,,,,,,,
2020,02,29,04,22,00,193.8,,,,,,,,,,,,,,
2020,02,29,04,23,00,173.3,,,,,,,,,,,,,,
2020,02,29,04,24,00,163.2,,,,,,,,,,,,,,
2020,02,29,04,25,00,156.9,,,,,,,,,,,,,,
2020,02,29,04,26,00,169.7,,,,,,,,,,,,,,
2020,02,29,04,27,00,185.6,,,,,,,,,,,,,,
2020,02,29,04,28,00,172.8,,,,,,,,,,,,,,
2020,02,29,04,29,00,151.5,,,,,,,,,,,,,,
2020,02,29,04,30,00,151.9,,,,,,,,,,,,,,
2020,02,29,04,31,00,138.4,,,,,,,,,,,,,,
2020,02,29,04,32,00,118.4,,,,,,,,,,,,,,
2020,02,29,04,33,00,115.0,,,,,,,,,,,,,,
2020,02,29,04,34,00,124.4,,,,,,,,,,,,,,
2020,02,29,04,35,00,121.8,,,,,,,,,,,,,,
2020,02,29,04,36,00,113.3,,,,,,,,,,,,,,
2020,02,29,04,37,00,113.9,,,,,,,,,,,,,,
2020,02,29,04,38,00,131.4,,,,,,,,,,,,,,
2020,02,29,04,39,00,171.0,,,,,,,,,,,,,,
2020,02,29,04,40,00,157.9,,,,,,,,,,,,,,
2020,02,29,04,41,00,151.5,,,,,,,,,,,,,,
2020,02,29,04,42,00,145.4,,,,,,,,,,,,,,
2020,02,29,04,43,00,125.7,,,,,,,,,,,,,,
2020,02,29,04,44,00,117.8,,,,,,,,,,,,,,
2020,02,29,04,45,00,110.6,,,,,,,,,,,,,,
2020,02,29,04,46,00,107.4,,,,,,,,,,,,,,
2020,02,29,04,47,00,102.5,,,,,,,,,,,,,,
2020,02,29,04,48,00,101.8,,,,,,,,,,,,,,
2020,02,29,04,49,00,109.0,,,,,,,,,,,,,,
2020,02,29,04,50,00,118.0,,,,,,,,,,,,,,
2020,02,29,04,51,00,132.1,,,,,,,,,,,,,,
2020,02,29,04,52,00,142.0,,,,,,,,,,,,,,
2020,02,29,04,53,00,134.8,,,,,,,,,,,,,,
2020,02,29,04,54,00,117.1,,,,,,,,,,,,,,
2020,02,29,04,55,00,112.8,,,,,,,,,,,,,,
2020,02,29,04,56,00,109.4,,,,,,,,,,,,,,
2020,02,29,04,57,00,106.5,,,,,,,,,,,,,,
2020,02,29,04,58,00,102.0,,,,,,,,,,,,,,
2020,02,29,04,59,00,100.0,,,,,,,,,,,,,,
2020,02,29,05,00,00,100.5,,,,,,,,,,,,,,
2020,02,29,05,01,00,99.5,,,,,,,,,,,,,,
2020,02,29,05,02,00,102.5,,,,,,,,,,,,,,
2020,02,29,05,03,00,106.5,,,,,,,,,,,,,,
2020,02,29,05,04,00,125.5,,,,,,,,,,,,,,
2020,02,29,05,05,00,128.5,,,,,,,,,,,,,,
2020,02,29,05,06,00,111.6,,,,,,,,,,,,,,
2020,02,29,05,07,00,103.7,,,,,,,,,,,,,,
2020,02,29,05,08,00,108.7,,,,,,,,,,,,,,
2020,02,29,05,09,00,104.7,,,,,,,,,,,,,,
2020,02,29,05,10,00,109.6,,,,,,,,,,,,,,
2020,02,29,05,11,00,117.5,,,,,,,,,,,,,,
2020,02,29,05,12,00,127.5,,,,,,,,,,,,,,
2020,02,29,05,13,00,132.6,,,,,,,,,,,,,,
2020,02,29,05,14,00,150.9,,,,,,,,,,,,,,
2020,02,29,05,15,00,156.7,,,,,,,,,,,,,,
2020,02,29,05,16,00,201.8,,,,,,,,,,,,,,
2020,02,29,05,17,00,188.1,,,,,,,,,,,,,,
2020,02,29,05,18,00,138.5,,,,,,,,,,,,,,
2020,02,29,05,19,00,124.0,,,,,,,,,,,,,,
2020,02,29,05,20,00,112.4,,,,,,,,,,,,,,
2020,02,29,05,21,00,114.0,,,,,,,,,,,,,,
2020,02,29,05,22,00,101.6,,,,,,,,,,,,,,
2020,02,29,05,23,00,99.5,,,,,,,,,,,,,,
2020,02,29,05,24,00,99.0,,,,,,,,,,,,,,
2020,02,29,05,25,00,100.1,,,,,,,,,,,,,,
2020,02,29,05,26,00,108.2,,,,,,,,,,,,,,
2020,02,29,05,27,00,110.8,,,,,,,,,,,,,,
2020,02,29,05,28,00,115.1,,,,,,,,,,,,,,
2020,02,29,05,29,00,122.1,,,,,,,,,,,,,,
2020,02,29,05,30,00,124.3,,,,,,,,,,,,,,
2020,02,29,05,31,00,122.8,,,,,,,,,,,,,,
2020,02,29,05,32,00,114.1,,,,,,,,,,,,,,
2020,02,29,05,33,00,129.9,,,,,,,,,,,,,,
2020,02,29,05,34,00,154.4,,,,,,,,,,,,,,
2020,02,29,05,35,00,180.8,,,,,,,,,,,,,,
2020,02,29,05,36,00,162.9,,,,,,,,,,,,,,
2020,02,29,05,37,00,153.9,,,,,,,,,,,,,,
2020,02,29,05,38,00,147.3,,,,,,,,,,,,,,
2020,02,29,05,39,00,141.6,,,,,,,,,,,,,,
2020,02,29,05,40,00,116.5,,,,,,,,,,,,,,
2020,02,29,05,41,00,117.1,,,,,,,,,,,,,,
2020,02,29,05,42,00,128.4,,,,,,,,,,,,,,
2020,02,29,05,43,00,117.4,,,,,,,,,,,,,,
2020,02,29,05,44,00,109.0,,,,,,,,,,,,,,
2020,02,29,05,45,00,121.4,,,,,,,,,,,,,,
2020,02,29,05,46,00,105.2,,,,,,,,,,,,,,
2020,02,29,05,47,00,106.7,,,,,,,,,,,,,,
2020,02,29,05,48,00,118.9,,,,,,,,,,,,,,
2020,02,29,05,49,00,120.0,,,,,,,,,,,,,,
2020,02,29,05,50,00,122.1,,,,,,,,,,,,,,
2020,02,29,05,51,00,149.2,,,,,,,,,,,,,,
2020,02,29,05,52,00,182.1,,,,,,,,,,,,,,
2020,02,29,05,53,00,146.4,,,,,,,,,,,,,,
2020,02,29,05,54,00,129.7,,,,,,,,,,,,,,
2020,02,29,05,55,00,122.3,,,,,,,,,,,,,,
2020,02,29,05,56,00,112.9,,,,,,,,,,,,,,
2020,02,29,05,57,00,110.8,,,,,,,,,,,,,,
2020,02,29,05,58,00,121.2,,,,,,,,,,,,,,
2020,02,29,05,59,00,138.2,,,,,,,,,,,,,,
2020,02,29,06,00,00,152.7,,,,,,,,,,,,,,
2020,02,29,06,01,00,120.5,,,,,,,,,,,,,,
2020,02,29,06,02,00,116.0,,,,,,,,,,,,,,
2020,02,29,06,03,00,115.7,,,,,,,,,,,,,,
2020,02,29,06,04,00,115.6,,,,,,,,,,,,,,
2020,02,29,06,05,00,105.0,,,,,,,,,,,,,,
2020,02,29,06,06,00,101.4,,,,,,,,,,,,,,
2020,02,29,06,07,00,107.0,,,,,,,,,,,,,,
2020,02,29,06,08,00,144.0,,,,,,,,,,,,,,
2020,02,29,06,09,00,144.9,,,,,,,,,,,,,,
2020,02,29,06,10,00,108.6,,,,,,,,,,,,,,
2020,02,29,06,11,00,108.4,,,,,,,,,,,,,,
2020,02,29,06,12,00,111.3,,,,,,,,,,,,,,
2020,02,29,06,13,00,113.0,,,,,,,,,,,,,,
2020,02,29,06,14,00,120.8,,,,,,,,,,,,,,
2020,02,29,06,15,00,122.0,,,,,,,,,,,,,,
2020,02,29,06,16,00,119.8,,,,,,,,,,,,,,
2020,02,29,06,17,00,119.8,,,,,,,,,,,,,,
2020,02,29,06,18,00,134.2,,,,,,,,,,,,,,
2020,02,29,06,19,00,125.7,,,,,,,,,,,,,,
2020,02,29,06,20,00,121.4,,,,,,,,,,,,,,
2020,02,29,06,21,00,117.4,,,,,,,,,,,,,,
2020,02,29,06,22,00,138.6,,,,,,,,,,,,,,
2020,02,29,06,23,00,143.0,,,,,,,,,,,,,,
2020,02,29,06,24,00,138.0,,,,,,,,,,,,,,
2020,02,29,06,25,00,141.4,,,,,,,,,,,,,,
2020,02,29,06,26,00,144.9,,,,,,,,,,,,,,
2020,02,29,06,27,00,144.1,,,,,,,,,,,,,,
2020,02,29,06,28,00,140.2,,,,,,,,,,,,,,
2020,02,29,06,29,00,121.4,,,,,,,,,,,,,,
2020,02,29,06,30,00,111.4,,,,,,,,,,,,,,
2020,02,29,06,31,00,111.8,,,,,,,,,,,,,,
2020,02,29,06,32,00,114.6,,,,,,,,,,,,,,
2020,02,29,06,33,00,116.0,,,,,,,,,,,,,,
2020,02,29,06,34,00,129.7,,,,,,,,,,,,,,
2020,02,29,06,35,00,135.6,,,,,,,,,,,,,,
2020,02,29,06,36,00,119.5,,,,,,,,,,,,,,
2020,02,29,06,37,00,106.3,,,,,,,,,,,,,,
2020,02,29,06,38,00,100.2,,,,,,,,,,,,,,
2020,02,29,06,39,00,100.6,,,,,,,,,,,,,,
2020,02,29,06,40,00,99.1,,,,,,,,,,,,,,
2020,02,29,06,41,00,100.1,,,,,,,,,,,,,,
2020,02,29,06,42,00,100.0,,,,,,,,,,,,,,
2020,02,29,06,43,00,105.1,,,,,,,,,,,,,,
2020,02,29,06,44,00,108.5,,,,,,,,,,,,,,
2020,02,29,06,45,00,123.7,,,,,,,,,,,,,,
2020,02,29,06,46,00,122.0,,,,,,,,,,,,,,
2020,02,29,06,47,00,116.5,,,,,,,,,,,,,,
2020,02,29,06,48,00,121.7,,,,,,,,,,,,,,
2020,02,29,06,49,00,146.5,,,,,,,,,,,,,,
2020,02,29,06,50,00,169.0,,,,,,,,,,,,,,
2020,02,29,06,51,00,124.8,,,,,,,,,,,,,,
2020,02,29,06,52,00,102.0,,,,,,,,,,,,,,
2020,02,29,06,53,00,78.4,,,,,,,,,,,,,,
2020,02,29,06,54,00,40.5,,,,,,,,,,,,,,
2020,02,29,06,55,00,55.2,,,,,,,,,,,,,,
2020,02,29,06,56,00,79.5,,,,,,,,,,,,,,
2020,02,29,06,57,00,110.2,,,,,,,,,,,,,,
2020,02,29,06,58,00,113.3,,,,,,,,,,,,,,
2020,02,29,06,59,00,105.5,,,,,,,,,,,,,,
2020,02,29,07,00,00,94.3,,,,,,,,,,,,,,
2020,02,29,07,01,00,96.0,,,,,,,,,,,,,,
2020,02,29,07,02,00,114.5,,,,,,,,,,,,,,
2020,02,29,07,03,00,114.7,,,,,,,,,,,,,,
2020,02,29,07,04,00,121.2,,,,,,,,,,,,,,
2020,02,29,07,05,00,131.7,,,,,,,,,,,,,,
2020,02,29,07,06,00,128.1,,,,,,,,,,,,,,
2020,02,29,07,07,00,148.1,,,,,,,,,,,,,,
2020,02,29,07,08,00,146.0,,,,,,,,,,,,,,
2020,02,29,07,09,00,144.4,,,,,,,,,,,,,,
2020,02,29,07,10,00,119.0,,,,,,,,,,,,,,
2020,02,29,07,11,00,115.1,,,,,,,,,,,,,,
2020,02,29,07,12,00,120.6,,,,,,,,,,,,,,
2020,02,29,07,13,00,130.5,,,,,,,,,,,,,,
2020,02,29,07,14,00,151.9,,,,,,,,,,,,,,
2020,02,29,07,15,00,129.4,,,,,,,,,,,,,,
2020,02,29,07,16,00,101.1,,,,,,,,,,,,,,
2020,02,29,07,17,00,105.8,,,,,,,,,,,,,,
2020,02,29,07,18,00,116.6,,,,,,,,,,,,,,
2020,02,29,07,19,00,141.2,,,,,,,,,,,,,,
2020,02,29,07,20,00,149.7,,,,,,,,,,,,,,
2020,02,29,07,21,00,130.2,,,,,,,,,,,,,,
2020,02,29,07,22,00,153.3,,,,,,,,,,,,,,
2020,02,29,07,23,00,144.3,,,,,,,,,,,,,,
2020,02,29,07,24,00,145.6,,,,,,,,,,,,,,
2020,02,29,07,25,00,143.7,,,,,,,,,,,,,,
2020,02,29,07,26,00,107.4,,,,,,,,,,,,,,
2020,02,29,07,27,00,98.0,,,,,,,,,,,,,,
2020,02,29,07,28,00,115.1,,,,,,,,,,,,,,
2020,02,29,07,29,00,118.1,,,,,,,,,,,,,,
2020,02,29,07,30,00,98.2,,,,,,,,,,,,,,
2020,02,29,07,31,00,101.1,,,,,,,,,,,,,,
2020,02,29,07,32,00,97.5,,,,,,,,,,,,,,
2020,02,29,07,33,00,93.4,,,,,,,,,,,,,,
2020,02,29,07,34,00,95.9,,,,,,,,,,,,,,
2020,02,29,07,35,00,95.9,,,,,,,,,,,,,,
2020,02,29,07,36,00,94.2,,,,,,,,,,,,,,
2020,02,29,07,37,00,96.5,,,,,,,,,,,,,,
2020,02,29,07,38,00,95.8,,,,,,,,,,,,,,
2020,02,29,07,39,00,103.4,,,,,,,,,,,,,,
2020,02,29,07,40,00,118.2,,,,,,,,,,,,,,
2020,02,29,07,41,00,117.9,,,,,,,,,,,,,,
2020,02,29,07,42,00,128.3,,,,,,,,,,,,,,
2020,02,29,07,43,00,187.7,,,,,,,,,,,,,,
2020,02,29,07,44,00,211.4,,,,,,,,,,,,,,
2020,02,29,07,45,00,225.2,,,,,,,,,,,,,,
2020,02,29,07,46,00,217.7,,,,,,,,,,,,,,
2020,02,29,07,47,00,209.2,,,,,,,,,,,,,,
2020,02,29,07,48,00,136.6,,,,,,,,,,,,,,
2020,02,29,07,49,00,114.7,,,,,,,,,,,,,,
2020,02,29,07,50,00,106.9,,,,,,,,,,,,,,
2020,02,29,07,51,00,49.1,,,,,,,,,,,,,,
2020,02,29,07,52,00,23.0,,,,,,,,,,,,,,
2020,02,29,07,53,00,17.6,,,,,,,,,,,,,,
2020,02,29,07,54,00,98.6,,,,,,,,,,,,,,
2020,02,29,07,55,00,174.6,,,,,,,,,,,,,,
2020,02,29,07,56,00,356.2,,,,,,,,,,,,,,
2020,02,29,07,57,00,349.6,,,,,,,,,,,,,,
2020,02,29,07,58,00,280.0,,,,,,,,,,,,,,
2020,02,29,07,59,00,332.4,,,,,,,,,,,,,,
2020,02,29,08,00,00,300.3,,,,,,,,,,,,,,
2020,02,29,08,01,00,215.1,,,,,,,,,,,,,,
2020,02,29,08,02,00,211.1,,,,,,,,,,,,,,
2020,02,29,08,03,00,522.5,,,,,,,,,,,,,,
2020,02,29,08,04,00,671.8,,,,,,,,,,,,,,
2020,02,29,08,05,00,676.1,,,,,,,,,,,,,,
2020,02,29,08,06,00,653.5,,,,,,,,,,,,,,
2020,02,29,08,07,00,754.4,,,,,,,,,,,,,,
2020,02,29,08,08,00,744.1,,,,,,,,,,,,,,
2020,02,29,08,09,00,556.3,,,,,,,,,,,,,,
2020,02,29,08,10,00,478.8,,,,,,,,,,,,,,
2020,02,29,08,11,00,557.3,,,,,,,,,,,,,,
2020,02,29,08,12,00,552.7,,,,,,,,,,,,,,
2020,02,29,08,13,00,476.1,,,,,,,,,,,,,,
2020,02,29,08,14,00,383.4,,,,,,,,,,,,,,
2020,02,29,08,15,00,557.0,,,,,,,,,,,,,,
2020,02,29,08,16,00,615.2,,,,,,,,,,,,,,
2020,02,29,08,17,00,741.1,,,,,,,,,,,,,,
2020,02,29,08,18,00,832.4,,,,,,,,,,,,,,
2020,02,29,08,19,00,692.3,,,,,,,,,,,,,,
2020,02,29,08,20,00,477.8,,,,,,,,,,,,,,
2020,02,29,08,21,00,298.9,,,,,,,,,,,,,,
2020,02,29,08,22,00,297.0,,,,,,,,,,,,,,
2020,02,29,08,23,00,410.0,,,,,,,,,,,,,,
2020,02,29,08,24,00,386.0,,,,,,,,,,,,,,
2020,02,29,08,25,00,450.6,,,,,,,,,,,,,,
2020,02,29,08,26,00,531.3,,,,,,,,,,,,,,
2020,02,29,08,27,00,570.2,,,,,,,,,,,,,,
2020,02,29,08,28,00,570.8,,,,,,,,,,,,,,
2020,02,29,08,29,00,642.4,,,,,,,,,,,,,,
2020,02,29,08,30,00,647.1,,,,,,,,,,,,,,
2020,02,29,08,31,00,529.0,,,,,,,,,,,,,,
2020,02,29,08,32,00,433.2,,,,,,,,,,,,,,
2020,02,29,08,33,00,347.0,,,,,,,,,,,,,,
2020,02,29,08,34,00,365.5,,,,,,,,,,,,,,
2020,02,29,08,35,00,420.6,,,,,,,,,,,,,,
2020,02,29,08,36,00,743.9,,,,,,,,,,,,,,
2020,02,29,08,37,00,981.1,,,,,,,,,,,,,,
2020,02,29,08,38,00,847.9,,,,,,,,,,,,,,
2020,02,29,08,39,00,762.4,,,,,,,,,,,,,,
2020,02,29,08,40,00,466.9,,,,,,,,,,,,,,
2020,02,29,08,41,00,270.2,,,,,,,,,,,,,,
2020,02,29,08,42,00,304.1,,,,,,,,,,,,,,
2020,02,29,08,43,00,314.1,,,,,,,,,,,,,,
2020,02,29,08,44,00,328.1,,,,,,,,,,,,,,
2020,02,29,08,45,00,344.2,,,,,,,,,,,,,,
2020,02,29,08,46,00,377.7,,,,,,,,,,,,,,
2020,02,29,08,47,00,492.8,,,,,,,,,,,,,,
2020,02,29,08,48,00,685.0,,,,,,,,,,,,,,
2020,02,29,08,49,00,852.7,,,,,,,,,,,,,,
2020,02,29,08,50,00,557.4,,,,,,,,,,,,,,
2020,02,29,08,51,00,706.4,,,,,,,,,,,,,,
2020,02,29,08,52,00,572.1,,,,,,,,,,,,,,
2020,02,29,08,53,00,648.8,,,,,,,,,,,,,,
2020,02,29,08,54,00,760.4,,,,,,,,,,,,,,
2020,02,29,08,55,00,843.7,,,,,,,,,,,,,,
2020,02,29,08,56,00,1054.0,,,,,,,,,,,,,,
2020,02,29,08,57,00,1056.7,,,,,,,,,,,,,,
2020,02,29,08,58,00,917.6,,,,,,,,,,,,,,
2020,02,29,08,59,00,930.0,,,,,,,,,,,,,,
2020,02,29,09,00,00,1332.6,,,,,,,,,,,,,,
2020,02,29,09,01,00,985.6,,,,,,,,,,,,,,
2020,02,29,09,02,00,711.0,,,,,,,,,,,,,,
2020,02,29,09,03,00,684.0,,,,,,,,,,,,,,
2020,02,29,09,04,00,620.5,,,,,,,,,,,,,,
2020,02,29,09,05,00,664.8,,,,,,,,,,,,,,
2020,02,29,09,06,00,820.4,,,,,,,,,,,,,,
2020,02,29,09,07,00,941.1,,,,,,,,,,,,,,
2020,02,29,09,08,00,629.5,,,,,,,,,,,,,,
2020,02,29,09,09,00,447.3,,,,,,,,,,,,,,
2020,02,29,09,10,00,378.7,,,,,,,,,,,,,,
2020,02,29,09,11,00,477.4,,,,,,,,,,,,,,
2020,02,29,09,12,00,397.7,,,,,,,,,,,,,,
2020,02,29,09,13,00,605.5,,,,,,,,,,,,,,
2020,02,29,09,14,00,826.6,,,,,,,,,,,,,,
2020,02,29,09,15,00,758.1,,,,,,,,,,,,,,
2020,02,29,09,16,00,1150.7,,,,,,,,,,,,,,
2020,02,29,09,17,00,1006.8,,,,,,,,,,,,,,
2020,02,29,09,18,00,933.1,,,,,,,,,,,,,,
2020,02,29,09,19,00,923.1,,,,,,,,,,,,,,
2020,02,29,09,20,00,994.3,,,,,,,,,,,,,,
2020,02,29,09,21,00,1118.9,,,,,,,,,,,,,,
2020,02,29,09,22,00,1363.6,,,,,,,,,,,,,,
2020,02,29,09,23,00,1873.1,,,,,,,,,,,,,,
2020,02,29,09,24,00,1207.3,,,,,,,,,,,,,,
2020,02,29,09,25,00,902.0,,,,,,,,,,,,,,
2020,02,29,09,26,00,779.8,,,,,,,,,,,,,,
2020,02,29,09,27,00,1188.0,,,,,,,,,,,,,,
2020,02,29,09,28,00,1501.5,,,,,,,,,,,,,,
2020,02,29,09,29,00,1342.8,,,,,,,,,,,,,,
2020,02,29,09,30,00,1378.4,,,,,,,,,,,,,,
2020,02,29,09,31,00,1288.2,,,,,,,,,,,,,,
2020,02,29,09,32,00,1649.1,,,,,,,,,,,,,,
2020,02,29,09,33,00,1413.9,,,,,,,,,,,,,,
2020,02,29,09,34,00,1093.5,,,,,,,,,,,,,,
2020,02,29,09,35,00,1125.4,,,,,,,,,,,,,,
2020,02,29,09,36,00,1219.2,,,,,,,,,,,,,,
2020,02,29,09,37,00,2008.6,,,,,,,,,,,,,,
2020,02,29,09,38,00,1760.4,,,,,,,,,,,,,,
2020,02,29,09,39,00,1669.0,,,,,,,,,,,,,,
2020,02,29,09,40,00,1248.4,,,,,,,,,,,,,,
2020,02,29,09,41,00,1179.0,,,,,,,,,,,,,,
2020,02,29,09,42,00,1670.4,,,,,,,,,,,,,,
2020,02,29,09,43,00,1578.9,,,,,,,,,,,,,,
2020,02,29,09,44,00,1453.9,,,,,,,,,,,,,,